[[{"header":{"parameterUnit":"m.s-1","parameterCategory":1,"la1":30.2991,"la2":30.254,"lo1":-89.0895,"lo2":-89.0444,"dy":0.0017,"dx":0.0017,"nx":28,"ny":28,"refTime":"2025-03-01T09:00:00:Z","depth":0,"parameterNumber":2,"parameterNumberName":"U-component_of_WINDS"},"data":[0,0,0,0,0,0,0,0,0,0,0,0,0,0,0,0,0,0,0,0,0,0,0,0,0,0,0,0,0,0,0,0,0,0,0,0,0,0,0,0,0,0,0,0,0,0,0,0,0,0,0,0,0,0,0,0,0,0,1.7682,1.7682,0,1.7739,1.7739,1.774,1.7753,1.7753,1.7753,1.7752,1.7813,1.7815,1.7817,0,0,0,0,0,0,0,0,0,0,0,0,0,1.7588,1.7589,1.7681,1.7682,1.7683,1.7738,1.7739,1.774,1.7754,1.7753,1.7753,1.7752,1.7812,1.7814,1.7817,0,0,0,0,0,0,0,0,0,0,0,0,0,1.7635,1.759,1.7681,1.7696,1.7698,1.7738,1.7739,1.774,1.7754,1.7753,1.7752,1.7752,1.7811,1.7814,1.7817,1.7847,0,0,1.7826,1.7827,0,0,0,0,0,0,0,0,1.7632,1.7638,1.7693,1.7695,1.7698,1.7738,1.7728,1.7776,1.7754,1.7733,1.7752,1.7752,1.7789,1.7793,1.7805,1.785,1.7852,1.7826,1.7828,1.7829,1.783,0,0,0,0,0,0,0,1.7629,1.7636,1.7704,1.7694,1.7697,1.7701,1.7707,1.7738,1.7763,1.7734,1.7736,1.7742,1.779,1.7803,1.7807,1.7853,1.7826,1.7829,1.7831,1.7832,1.7928,1.7929,0,0,0,0,0,0,1.7623,1.7633,1.7702,1.7706,1.7663,1.7703,1.771,1.7726,1.7763,1.7768,1.7742,1.7742,1.7798,1.7803,1.7809,1.7849,1.7829,1.7832,1.7834,1.7928,1.7929,1.7929,0,0,0,0,0,0,1.7621,1.7629,1.77,1.767,1.7679,1.7706,1.7723,1.7727,1.774,1.7769,1.7774,1.7751,1.7798,1.7805,1.7838,1.7851,1.7834,1.7836,1.7927,1.7928,1.7929,1.7926,0,0,0,0,0,0,1.7618,1.7628,1.7639,1.767,1.7681,1.7727,1.7724,1.7729,1.7745,1.7745,1.7778,1.7783,1.7798,1.7834,1.7841,1.7855,1.7839,1.7926,1.7927,1.7929,1.7925,1.7927,1.7929,0,0,0,0,0,1.7615,1.7635,1.7639,1.7647,1.7695,1.7727,1.7734,1.775,1.7746,1.7758,1.7777,1.7782,1.7848,1.7837,1.7845,1.786,1.7925,1.7927,1.7929,1.7925,1.7927,1.7929,0,0,0,0,0,0,1.7605,1.764,1.7644,1.7675,1.7698,1.773,1.7745,1.7751,1.7776,1.7776,1.7795,1.7803,1.7835,1.7851,1.7838,1.7892,1.7887,1.789,1.7881,1.7883,1.7885,1.7881,1.7841,0,0,0,0,0,1.7606,1.7629,1.7659,1.7684,1.7695,1.7718,1.7733,1.7743,1.7768,1.7778,1.7799,1.7824,1.7851,1.7868,1.7893,1.7928,1.7936,1.7942,1.7944,1.7945,1.7948,1.797,1.7974,1.7935,1.7935,1.7935,0,0,1.7609,1.7631,1.7645,1.7682,1.7701,1.7726,1.7726,1.7751,1.7771,1.7782,1.7815,1.7832,1.7861,1.7895,1.7911,1.7909,1.7961,1.7947,1.7948,1.7951,1.7972,1.7976,1.7979,1.7936,1.7936,1.7936,0,0,1.7628,1.7646,1.767,1.769,1.7719,1.7734,1.774,1.7771,1.7782,1.7816,1.7826,1.7849,1.7894,1.7915,1.7931,1.7961,1.7967,1.7969,1.7978,1.7999,1.8002,1.8005,1.8017,1.8021,1.7971,1.7971,1.7971,0,1.7629,1.7666,1.7682,1.7708,1.7725,1.7737,1.7762,1.778,1.7816,1.7829,1.7826,1.7884,1.7904,1.7945,1.7952,1.7964,1.7973,1.7965,1.8,1.8003,1.8006,1.8018,1.8022,1.7972,1.7972,1.7972,1.7972,0,1.7666,1.7692,1.7708,1.7742,1.7761,1.7787,1.7808,1.7826,1.7836,1.7852,1.7887,1.7912,1.7944,1.7954,1.7963,1.7997,1.7995,1.7996,1.7991,1.8009,1.8021,1.8026,1.7972,1.7972,1.7972,1.7972,0,0,1.7679,1.7724,1.773,1.7747,1.7781,1.7801,1.7828,1.786,1.7876,1.7901,1.7925,1.7964,1.7965,1.7984,1.7996,1.8014,1.8039,1.8013,1.8014,1.8018,1.808,1.808,1.8085,1.8043,1.8044,1.8045,1.8078,0,1.7703,1.7751,1.7768,1.7808,1.7833,1.7846,1.787,1.7894,1.791,1.7935,1.7954,1.7982,1.7981,1.7992,1.8011,1.8032,1.8052,1.8029,1.8068,1.8069,1.8061,1.8091,1.8091,1.8121,1.8083,1.8083,1.8084,0,1.7737,1.7763,1.7806,1.7839,1.785,1.7871,1.7903,1.7926,1.7955,1.7966,1.7988,1.7999,1.803,1.8022,1.8066,1.8051,1.8068,1.808,1.8082,1.8087,1.8078,1.8098,1.8131,1.8136,1.8091,1.8091,1.809,0,1.7745,1.779,1.7822,1.7836,1.7875,1.789,1.7907,1.7935,1.7954,1.7982,1.7995,1.8026,1.8043,1.8068,1.8088,1.808,1.8131,1.8124,1.8142,1.8142,1.8153,1.8152,1.819,1.8161,1.8161,1.8161,1.8161,0,1.777,1.7796,1.7827,1.7846,1.7877,1.7897,1.7927,1.7945,1.797,1.7995,1.8008,1.8031,1.8056,1.8083,1.8099,1.8134,1.8141,1.8152,1.8156,1.8152,1.815,1.8164,1.8163,1.8163,1.8162,1.8162,1.8162,0,1.7783,1.7804,1.7841,1.7875,1.7885,1.7906,1.7936,1.7957,1.7974,1.8006,1.8015,1.8043,1.8076,1.8098,1.814,1.8151,1.8189,1.8192,1.818,1.8182,1.8199,1.8198,1.8247,1.8256,1.8221,1.8221,1.8221,0,1.7799,1.7819,1.7856,1.7874,1.7891,1.7919,1.7938,1.7959,1.798,1.8015,1.8032,1.8066,1.8094,1.8146,1.8171,1.8204,1.8209,1.8224,1.8214,1.8209,1.8211,1.821,1.8214,1.8226,1.8226,1.8226,1.8227,0,1.7824,1.7834,1.7861,1.7893,1.7916,1.7942,1.7969,1.7982,1.8009,1.8031,1.8064,1.8086,1.813,1.8164,1.82,1.8219,1.8228,1.823,1.8236,1.8232,1.8224,1.823,1.8185,1.8229,1.8228,1.8228,1.8228,1.8228,1.784,1.786,1.789,1.7921,1.7943,1.7968,1.7989,1.8011,1.8039,1.8076,1.8087,1.8123,1.8154,1.8202,1.8222,1.8252,1.825,1.8259,1.8261,1.8263,1.8264,1.8219,1.8258,1.8258,1.8258,1.8258,1.8258,0,1.7868,1.7888,1.7916,1.7953,1.7978,1.7984,1.8014,1.8035,1.8066,1.8094,1.8122,1.8162,1.8196,1.8224,1.8259,1.8278,1.8283,1.8286,1.8286,1.8291,1.8262,1.8254,1.8282,1.8282,1.8282,1.8282,1.8282,1.8282,1.7885,1.7919,1.7934,1.798,1.8001,1.8036,1.8053,1.8077,1.8099,1.8144,1.8172,1.819,1.8219,1.8257,1.8289,1.8297,1.831,1.8313,1.8321,1.8295,1.8292,1.829,1.8282,1.8315,1.8315,1.8347,1.8348,1.8348]},{"header":{"parameterUnit":"m.s-1","parameterCategory":1,"la1":30.2991,"la2":30.254,"lo1":-89.0895,"lo2":-89.0444,"dy":0.0017,"dx":0.0017,"nx":28,"ny":28,"refTime":"2025-03-01T09:00:00:Z","depth":0,"parameterNumber":3,"parameterNumberName":"V-component_of_WINDS"},"data":[0,0,0,0,0,0,0,0,0,0,0,0,0,0,0,0,0,0,0,0,0,0,0,0,0,0,0,0,0,0,0,0,0,0,0,0,0,0,0,0,0,0,0,0,0,0,0,0,0,0,0,0,0,0,0,0,0,0,0.2478,0.248,0,0.2637,0.2639,0.264,0.2601,0.2597,0.2594,0.2591,0.2755,0.2762,0.2769,0,0,0,0,0,0,0,0,0,0,0,0,0,0.2137,0.2144,0.2478,0.248,0.2482,0.2636,0.2639,0.2641,0.2601,0.2597,0.2594,0.259,0.2753,0.2761,0.277,0,0,0,0,0,0,0,0,0,0,0,0,0,0.2289,0.2146,0.2477,0.248,0.2482,0.2636,0.2639,0.2641,0.2602,0.2597,0.2593,0.2588,0.275,0.276,0.2771,0.2932,0,0,0.2804,0.2809,0,0,0,0,0,0,0,0,0.2281,0.2302,0.2478,0.2481,0.2483,0.2594,0.2579,0.2739,0.2603,0.2557,0.2591,0.2586,0.2705,0.272,0.276,0.2939,0.2946,0.2805,0.2812,0.2817,0.282,0,0,0,0,0,0,0,0.227,0.2295,0.2541,0.2481,0.2484,0.2473,0.249,0.2609,0.2655,0.256,0.2558,0.2577,0.2706,0.2749,0.2763,0.2949,0.2805,0.2815,0.2821,0.2826,0.3263,0.3267,0,0,0,0,0,0,0.2258,0.2286,0.2536,0.2545,0.2368,0.2483,0.2501,0.2563,0.2654,0.2663,0.2581,0.2575,0.2733,0.2751,0.2769,0.2959,0.2817,0.2827,0.2833,0.3258,0.3264,0.3269,0,0,0,0,0,0,0.2251,0.2281,0.2529,0.2415,0.2446,0.2494,0.2563,0.2569,0.2612,0.2669,0.2677,0.2617,0.273,0.2753,0.289,0.2964,0.2832,0.2842,0.3252,0.3259,0.3266,0.3343,0,0,0,0,0,0,0.2241,0.2278,0.2341,0.2417,0.2452,0.2649,0.2568,0.2575,0.2631,0.2624,0.2705,0.2714,0.2728,0.2874,0.2901,0.2977,0.285,0.3245,0.3255,0.3264,0.3335,0.3353,0.3368,0,0,0,0,0,0.2229,0.2358,0.2344,0.2375,0.2531,0.2654,0.2674,0.2687,0.2637,0.2699,0.2735,0.2712,0.2952,0.2889,0.2919,0.2999,0.3241,0.3252,0.3263,0.3327,0.3349,0.3368,0,0,0,0,0,0,0.2291,0.2368,0.2354,0.2511,0.2576,0.2647,0.2726,0.2711,0.2792,0.2782,0.2795,0.2813,0.2952,0.2989,0.2917,0.3156,0.3089,0.3107,0.3127,0.3149,0.3165,0.3153,0.2859,0,0,0,0,0,0.2322,0.2415,0.2477,0.261,0.2643,0.2679,0.2733,0.2736,0.2804,0.2832,0.2878,0.2945,0.3034,0.3094,0.318,0.334,0.3355,0.3409,0.3426,0.344,0.3455,0.3537,0.3561,0.3307,0.3307,0.3306,0,0,0.2389,0.2442,0.2501,0.2623,0.2674,0.2768,0.2702,0.2807,0.2876,0.2848,0.2979,0.3015,0.3089,0.3237,0.3304,0.3272,0.3528,0.3454,0.3465,0.3472,0.3551,0.3575,0.3597,0.3314,0.3313,0.3312,0,0,0.2557,0.2609,0.2722,0.2774,0.285,0.2873,0.29,0.2973,0.2995,0.3126,0.3105,0.3188,0.3344,0.3397,0.3444,0.3628,0.3608,0.3656,0.3744,0.3824,0.3844,0.3862,0.3924,0.3946,0.3671,0.3671,0.3671,0,0.2631,0.2773,0.2783,0.2887,0.294,0.2917,0.3031,0.308,0.3182,0.3218,0.3181,0.3373,0.3422,0.3579,0.3623,0.3664,0.3693,0.3646,0.384,0.3858,0.3875,0.3934,0.3958,0.3676,0.3675,0.3675,0.3674,0,0.2857,0.2955,0.3038,0.3134,0.3196,0.3305,0.333,0.3392,0.3389,0.3415,0.3546,0.3604,0.3699,0.3737,0.3737,0.3894,0.387,0.3837,0.3769,0.3904,0.396,0.3983,0.3683,0.3681,0.368,0.3679,0,0,0.3071,0.3168,0.3198,0.3239,0.332,0.3396,0.3502,0.3594,0.3645,0.3715,0.3803,0.3933,0.39,0.3954,0.3959,0.403,0.4166,0.3987,0.3988,0.4015,0.4338,0.4361,0.4387,0.4154,0.4158,0.4162,0.433,0,0.3245,0.3431,0.3441,0.361,0.3699,0.3676,0.3768,0.3827,0.3853,0.3931,0.3959,0.405,0.4002,0.4033,0.4103,0.4135,0.4231,0.4124,0.4233,0.4237,0.4213,0.4417,0.4443,0.46,0.4352,0.4356,0.4359,0,0.3473,0.3547,0.3724,0.3788,0.3826,0.3908,0.3991,0.4067,0.4131,0.4145,0.4202,0.4196,0.4302,0.4231,0.4376,0.4302,0.4347,0.4369,0.4376,0.4385,0.4305,0.443,0.465,0.4673,0.4394,0.4391,0.4389,0,0.3608,0.3752,0.3875,0.3912,0.399,0.4048,0.4083,0.4143,0.4196,0.4269,0.4302,0.4387,0.4432,0.4496,0.4512,0.4459,0.4655,0.4586,0.4667,0.4666,0.4709,0.4706,0.4937,0.4741,0.4741,0.4741,0.474,0,0.38,0.3908,0.3936,0.4012,0.4131,0.4141,0.4258,0.429,0.4342,0.4422,0.4409,0.4484,0.45,0.4578,0.4591,0.4706,0.4728,0.474,0.4742,0.474,0.4738,0.4769,0.4758,0.4747,0.4745,0.4744,0.4743,0,0.397,0.3993,0.4125,0.4188,0.4206,0.4291,0.4343,0.4415,0.4437,0.4538,0.4562,0.4598,0.4688,0.471,0.4818,0.4826,0.4962,0.4955,0.494,0.4939,0.5017,0.5008,0.5275,0.5309,0.5093,0.5095,0.5097,0,0.409,0.4172,0.4242,0.4294,0.4331,0.4416,0.4469,0.448,0.4536,0.4613,0.4674,0.4763,0.4834,0.4979,0.5014,0.5095,0.5088,0.5176,0.51,0.5094,0.5086,0.508,0.5086,0.519,0.5192,0.5194,0.5196,0,0.43,0.4306,0.4383,0.4463,0.4526,0.459,0.4651,0.4694,0.4713,0.4776,0.4868,0.4923,0.5031,0.5118,0.5199,0.5234,0.5217,0.5219,0.5241,0.524,0.5226,0.5231,0.4976,0.5213,0.5211,0.521,0.5209,0.5208,0.4447,0.4517,0.4576,0.4661,0.4707,0.4763,0.4832,0.4861,0.4938,0.5026,0.5028,0.5127,0.5185,0.5291,0.5331,0.5407,0.538,0.5413,0.5421,0.5429,0.5434,0.5215,0.5422,0.5421,0.5421,0.5421,0.542,0,0.4653,0.4688,0.4766,0.485,0.4916,0.4894,0.4959,0.5015,0.5102,0.5157,0.5226,0.5329,0.5412,0.5452,0.5533,0.5586,0.558,0.5607,0.5602,0.5609,0.5455,0.5426,0.561,0.561,0.561,0.5609,0.5609,0.5609,0.4768,0.4884,0.4896,0.5034,0.5069,0.5164,0.5203,0.5253,0.5297,0.5412,0.548,0.5505,0.5553,0.5637,0.5711,0.572,0.575,0.5779,0.5785,0.564,0.5621,0.5602,0.5575,0.5786,0.5787,0.5932,0.5933,0.5934]}]]